QPF
0.02 0.02 0.02 0.02 0.02 0.02 0.02 0.01 0.01 0.01 0.02 0.03 0.03 0.02 0.03 0.03 0.01 0.00 0.01 0.01 0.02 0.02 0.03 0.04 0.05 0.04 0.03 0.04 0.05 0.04 0.05 0.08 0.06 0.04 0.07 0.11 0.13 0.15 0.16 0.13 0.09 0.07 0.04 0.02
0.02 0.02 0.01 0.01 0.01 0.02 0.03 0.02 0.01 0.01 0.01 0.03 0.03 0.02 0.02 0.03 0.01 0.01 0.01 0.01 0.02 0.02 0.03 0.05 0.06 0.06 0.04 0.03 0.03 0.04 0.04 0.06 0.09 0.05 0.05 0.07 0.08 0.11 0.13 0.15 0.14 0.10 0.06 0.03
0.01 0.01 0.01 0.01 0.01 0.02 0.03 0.03 0.02 0.02 0.02 0.03 0.03 0.03 0.03 0.04 0.02 0.00 0.01 0.01 0.01 0.02 0.03 0.05 0.06 0.06 0.05 0.03 0.02 0.03 0.04 0.04 0.08 0.07 0.05 0.06 0.07 0.08 0.10 0.14 0.16 0.13 0.09 0.05
0.00 0.00 0.01 0.01 0.01 0.02 0.03 0.03 0.02 0.02 0.04 0.04 0.04 0.05 0.04 0.05 0.03 0.00 0.01 0.01 0.02 0.02 0.04 0.06 0.06 0.06 0.05 0.03 0.03 0.03 0.04 0.05 0.05 0.07 0.06 0.07 0.07 0.07 0.07 0.10 0.15 0.15 0.13 0.09
0.01 0.01 0.01 0.01 0.01 0.02 0.02 0.03 0.02 0.02 0.03 0.04 0.04 0.04 0.04 0.04 0.03 0.01 0.01 0.01 0.02 0.03 0.04 0.06 0.07 0.07 0.06 0.04 0.03 0.03 0.04 0.06 0.05 0.06 0.06 0.08 0.08 0.06 0.06 0.08 0.11 0.15 0.17 0.15
0.02 0.02 0.02 0.01 0.01 0.02 0.02 0.02 0.03 0.03 0.04 0.04 0.02 0.03 0.04 0.04 0.03 0.01 0.01 0.02 0.02 0.04 0.05 0.05 0.06 0.08 0.07 0.05 0.04 0.04 0.04 0.05 0.06 0.05 0.06 0.08 0.09 0.07 0.06 0.07 0.08 0.12 0.17 0.19
0.01 0.02 0.02 0.01 0.01 0.02 0.03 0.05 0.07 0.08 0.06 0.03 0.01 0.02 0.03 0.03 0.02 0.02 0.02 0.02 0.03 0.04 0.05 0.06 0.07 0.08 0.09 0.08 0.06 0.05 0.04 0.05 0.05 0.05 0.05 0.07 0.09 0.08 0.06 0.06 0.06 0.08 0.13 0.18
0.01 0.02 0.02 0.02 0.03 0.04 0.03 0.05 0.06 0.05 0.03 0.02 0.02 0.02 0.03 0.03 0.02 0.01 0.01 0.02 0.03 0.04 0.04 0.04 0.05 0.06 0.08 0.08 0.07 0.06 0.05 0.06 0.06 0.04 0.04 0.06 0.09 0.09 0.06 0.06 0.05 0.07 0.09 0.13
0.01 0.02 0.01 0.01 0.02 0.01 0.02 0.03 0.03 0.03 0.01 0.02 0.02 0.02 0.04 0.04 0.02 0.01 0.02 0.02 0.02 0.03 0.04 0.04 0.05 0.06 0.07 0.08 0.08 0.07 0.06 0.06 0.06 0.04 0.03 0.05 0.07 0.09 0.07 0.05 0.04 0.05 0.07 0.10
0.01 0.01 0.00 0.00 0.01 0.01 0.02 0.02 0.02 0.03 0.03 0.02 0.02 0.03 0.04 0.03 0.03 0.02 0.02 0.02 0.02 0.03 0.03 0.04 0.04 0.06 0.07 0.05 0.08 0.11 0.08 0.07 0.07 0.05 0.04 0.04 0.06 0.09 0.09 0.06 0.04 0.03 0.05 0.09
0.00 0.01 0.01 0.00 0.01 0.02 0.02 0.02 0.02 0.03 0.03 0.03 0.03 0.04 0.06 0.05 0.04 0.03 0.02 0.02 0.02 0.03 0.03 0.04 0.03 0.05 0.08 0.07 0.07 0.09 0.12 0.11 0.09 0.06 0.05 0.05 0.06 0.07 0.09 0.06 0.04 0.03 0.03 0.06
0.01 0.01 0.01 0.00 0.01 0.01 0.02 0.02 0.02 0.03 0.03 0.02 0.03 0.05 0.05 0.05 0.05 0.03 0.02 0.02 0.03 0.02 0.03 0.04 0.04 0.04 0.06 0.08 0.08 0.07 0.09 0.12 0.11 0.10 0.08 0.07 0.07 0.07 0.07 0.07 0.06 0.04 0.03 0.04
0.02 0.02 0.02 0.01 0.01 0.00 0.01 0.01 0.02 0.03 0.03 0.03 0.04 0.04 0.03 0.03 0.04 0.04 0.03 0.03 0.02 0.02 0.03 0.03 0.04 0.05 0.06 0.08 0.10 0.10 0.08 0.09 0.10 0.10 0.11 0.10 0.09 0.08 0.06 0.07 0.07 0.05 0.04 0.04
0.02 0.03 0.02 0.01 0.01 0.01 0.01 0.01 0.01 0.03 0.04 0.04 0.04 0.04 0.03 0.03 0.03 0.03 0.04 0.03 0.03 0.02 0.03 0.03 0.04 0.05 0.06 0.07 0.09 0.12 0.10 0.07 0.07 0.08 0.09 0.11 0.11 0.09 0.07 0.06 0.06 0.05 0.04 0.03
0.01 0.02 0.02 0.01 0.00 0.01 0.01 0.01 0.01 0.02 0.03 0.03 0.03 0.04 0.04 0.03 0.03 0.04 0.04 0.03 0.03 0.02 0.03 0.03 0.05 0.05 0.07 0.07 0.07 0.09 0.10 0.09 0.07 0.07 0.07 0.08 0.09 0.09 0.08 0.06 0.05 0.05 0.04 0.03
0.01 0.02 0.01 0.00 0.00 0.00 0.01 0.01 0.01 0.01 0.02 0.02 0.02 0.03 0.03 0.03 0.03 0.03 0.04 0.04 0.03 0.03 0.04 0.04 0.04 0.05 0.08 0.08 0.07 0.07 0.08 0.09 0.08 0.07 0.05 0.04 0.06 0.08 0.10 0.09 0.07 0.05 0.04 0.03
0.01 0.01 0.02 0.01 0.00 0.01 0.01 0.01 0.01 0.01 0.01 0.02 0.03 0.03 0.03 0.03 0.04 0.05 0.06 0.07 0.06 0.05 0.06 0.04 0.04 0.05 0.06 0.07 0.07 0.07 0.07 0.08 0.08 0.06 0.04 0.03 0.03 0.05 0.07 0.09 0.10 0.06 0.05 0.04
0.01 0.01 0.01 0.01 0.01 0.01 0.01 0.01 0.01 0.01 0.01 0.01 0.02 0.02 0.03 0.03 0.04 0.05 0.05 0.06 0.06 0.05 0.05 0.04 0.04 0.04 0.05 0.06 0.05 0.05 0.06 0.07 0.07 0.06 0.04 0.03 0.03 0.03 0.06 0.08 0.09 0.08 0.06 0.05
0.00 0.01 0.01 0.01 0.01 0.01 0.00 0.00 0.00 0.01 0.01 0.01 0.01 0.01 0.02 0.01 0.01 0.03 0.04 0.04 0.04 0.04 0.04 0.04 0.04 0.05 0.05 0.06 0.06 0.06 0.05 0.06 0.07 0.06 0.04 0.04 0.03 0.03 0.04 0.06 0.07 0.07 0.06 0.06
0.01 0.01 0.01 0.01 0.01 0.01 0.00 0.00 0.00 0.01 0.01 0.00 0.01 0.01 0.01 0.01 0.01 0.03 0.04 0.04 0.04 0.04 0.03 0.04 0.05 0.05 0.05 0.07 0.07 0.07 0.06 0.07 0.09 0.08 0.06 0.04 0.04 0.04 0.04 0.04 0.05 0.07 0.08 0.08
0.01 0.01 0.01 0.01 0.01 0.00 0.00 0.00 0.00 0.01 0.01 0.00 0.01 0.01 0.02 0.02 0.03 0.04 0.04 0.04 0.04 0.03 0.03 0.04 0.05 0.05 0.06 0.08 0.08 0.08 0.07 0.07 0.08 0.07 0.05 0.04 0.04 0.05 0.05 0.04 0.05 0.06 0.08 0.08
0.01 0.02 0.02 0.01 0.01 0.01 0.00 0.00 0.01 0.01 0.01 0.00 0.01 0.01 0.02 0.02 0.02 0.02 0.03 0.03 0.03 0.03 0.03 0.04 0.03 0.04 0.05 0.06 0.05 0.04 0.04 0.04 0.05 0.06 0.06 0.05 0.05 0.05 0.05 0.05 0.05 0.05 0.06 0.07
0.01 0.01 0.01 0.02 0.01 0.01 0.01 0.01 0.01 0.01 0.00 0.00 0.00 0.01 0.01 0.01 0.01 0.02 0.02 0.03 0.03 0.03 0.03 0.03 0.03 0.03 0.04 0.05 0.04 0.03 0.03 0.03 0.04 0.05 0.05 0.06 0.05 0.05 0.05 0.04 0.04 0.04 0.05 0.06
0.01 0.01 0.01 0.01 0.01 0.01 0.00 0.00 0.00 0.00 0.00 0.00 0.00 0.00 0.01 0.01 0.01 0.01 0.02 0.02 0.03 0.03 0.03 0.03 0.03 0.03 0.03 0.04 0.04 0.03 0.03 0.03 0.03 0.05 0.05 0.05 0.04 0.04 0.04 0.03 0.04 0.04 0.05 0.05
0.01 0.01 0.01 0.01 0.01 0.00 0.00 0.01 0.01 0.00 0.00 0.00 0.00 0.00 0.01 0.01 0.01 0.01 0.01 0.02 0.03 0.03 0.03 0.03 0.03 0.03 0.03 0.03 0.03 0.03 0.03 0.03 0.04 0.04 0.04 0.03 0.03 0.04 0.04 0.04 0.05 0.05 0.05 0.05
0.01 0.01 0.01 0.01 0.01 0.01 0.01 0.01 0.01 0.01 0.01 0.01 0.00 0.01 0.01 0.01 0.01 0.01 0.02 0.02 0.02 0.02 0.02 0.02 0.02 0.02 0.02 0.02 0.02 0.03 0.03 0.03 0.03 0.02 0.03 0.03 0.03 0.03 0.03 0.04 0.05 0.05 0.05 0.04
MSLP
1027.66 1028.25 1028.82 1029.29 1029.65 1029.88 1029.99 1030.00 1029.98 1029.95 1029.95 1030.00 1030.12 1030.28 1030.46 1030.63 1030.78 1030.88 1030.94 1030.96 1030.95 1030.93 1030.91 1030.88 1030.84 1030.77 1030.64 1030.43 1030.15 1029.79 1029.38 1028.95 1028.54 1028.19 1027.90 1027.70 1027.56 1027.46 1027.35 1027.19 1026.96 1026.62 1026.19 1025.67
1029.26 1029.81 1030.28 1030.64 1030.87 1030.99 1031.00 1030.95 1030.87 1030.79 1030.74 1030.72 1030.74 1030.77 1030.81 1030.84 1030.86 1030.87 1030.86 1030.86 1030.88 1030.90 1030.93 1030.95 1030.94 1030.87 1030.73 1030.52 1030.24 1029.90 1029.53 1029.18 1028.87 1028.62 1028.43 1028.30 1028.21 1028.12 1027.99 1027.80 1027.53 1027.18 1026.74 1026.26
1030.57 1031.04 1031.40 1031.65 1031.78 1031.81 1031.78 1031.70 1031.60 1031.50 1031.41 1031.32 1031.22 1031.12 1031.00 1030.87 1030.76 1030.67 1030.61 1030.62 1030.67 1030.76 1030.86 1030.94 1030.98 1030.94 1030.80 1030.59 1030.30 1029.98 1029.66 1029.37 1029.14 1028.97 1028.87 1028.80 1028.74 1028.65 1028.50 1028.28 1027.99 1027.63 1027.22 1026.78
1031.50 1031.86 1032.12 1032.27 1032.34 1032.34 1032.30 1032.24 1032.16 1032.06 1031.93 1031.76 1031.53 1031.26 1030.96 1030.66 1030.40 1030.21 1030.12 1030.13 1030.25 1030.43 1030.64 1030.82 1030.93 1030.93 1030.83 1030.62 1030.34 1030.04 1029.75 1029.52 1029.35 1029.26 1029.21 1029.19 1029.15 1029.06 1028.90 1028.66 1028.35 1027.99 1027.61 1027.23
1032.02 1032.28 1032.45 1032.55 1032.60 1032.63 1032.64 1032.64 1032.60 1032.51 1032.34 1032.07 1031.69 1031.23 1030.72 1030.22 1029.79 1029.50 1029.37 1029.41 1029.60 1029.90 1030.24 1030.54 1030.75 1030.83 1030.78 1030.60 1030.34 1030.06 1029.80 1029.61 1029.50 1029.46 1029.47 1029.48 1029.47 1029.38 1029.20 1028.95 1028.63 1028.28 1027.93 1027.61
1032.19 1032.37 1032.49 1032.58 1032.67 1032.77 1032.88 1032.97 1033.00 1032.92 1032.70 1032.31 1031.75 1031.07 1030.33 1029.61 1029.01 1028.59 1028.42 1028.48 1028.76 1029.17 1029.65 1030.09 1030.43 1030.61 1030.63 1030.50 1030.28 1030.02 1029.79 1029.64 1029.57 1029.57 1029.63 1029.68 1029.68 1029.60 1029.43 1029.17 1028.85 1028.52 1028.20 1027.93
1032.11 1032.25 1032.37 1032.50 1032.68 1032.90 1033.13 1033.33 1033.43 1033.36 1033.07 1032.55 1031.79 1030.88 1029.88 1028.93 1028.14 1027.60 1027.36 1027.44 1027.78 1028.31 1028.92 1029.50 1029.96 1030.25 1030.35 1030.28 1030.10 1029.88 1029.68 1029.56 1029.53 1029.58 1029.67 1029.75 1029.79 1029.73 1029.57 1029.32 1029.02 1028.70 1028.40 1028.16
1031.93 1032.07 1032.23 1032.45 1032.75 1033.10 1033.47 1033.77 1033.92 1033.84 1033.48 1032.80 1031.85 1030.69 1029.46 1028.28 1027.30 1026.63 1026.32 1026.38 1026.77 1027.38 1028.10 1028.80 1029.37 1029.75 1029.93 1029.92 1029.79 1029.60 1029.44 1029.35 1029.35 1029.44 1029.57 1029.69 1029.76 1029.74 1029.61 1029.40 1029.12 1028.82 1028.54 1028.32
1031.78 1031.95 1032.19 1032.52 1032.94 1033.42 1033.90 1034.27 1034.44 1034.33 1033.86 1033.03 1031.89 1030.52 1029.07 1027.69 1026.55 1025.75 1025.37 1025.41 1025.81 1026.46 1027.24 1028.01 1028.66 1029.11 1029.35 1029.40 1029.31 1029.16 1029.03 1028.97 1029.00 1029.12 1029.29 1029.46 1029.57 1029.60 1029.52 1029.35 1029.11 1028.84 1028.59 1028.38
1031.75 1031.99 1032.32 1032.75 1033.27 1033.83 1034.36 1034.75 1034.88 1034.69 1034.10 1033.13 1031.82 1030.28 1028.67 1027.15 1025.89 1025.00 1024.56 1024.56 1024.94 1025.59 1026.39 1027.18 1027.86 1028.34 1028.61 1028.69 1028.64 1028.52 1028.42 1028.39 1028.46 1028.61 1028.82 1029.03 1029.20 1029.28 1029.27 1029.16 1028.97 1028.75 1028.53 1028.33
1031.90 1032.22 1032.62 1033.11 1033.66 1034.23 1034.72 1035.04 1035.07 1034.75 1034.03 1032.92 1031.49 1029.85 1028.15 1026.57 1025.26 1024.34 1023.86 1023.82 1024.17 1024.79 1025.55 1026.31 1026.96 1027.44 1027.71 1027.80 1027.77 1027.69 1027.62 1027.62 1027.72 1027.90 1028.14 1028.40 1028.62 1028.76 1028.82 1028.78 1028.66 1028.50 1028.33 1028.16
1032.22 1032.60 1033.03 1033.51 1034.02 1034.49 1034.85 1035.00 1034.86 1034.36 1033.49 1032.27 1030.77 1029.10 1027.41 1025.85 1024.58 1023.68 1023.21 1023.16 1023.46 1024.02 1024.71 1025.40 1025.99 1026.42 1026.68 1026.77 1026.76 1026.70 1026.66 1026.69 1026.82 1027.03 1027.30 1027.59 1027.85 1028.06 1028.18 1028.21 1028.18 1028.09 1027.98 1027.86
1032.65 1033.06 1033.47 1033.88 1034.24 1034.51 1034.63 1034.53 1034.14 1033.43 1032.40 1031.09 1029.57 1027.95 1026.35 1024.92 1023.76 1022.95 1022.54 1022.50 1022.76 1023.25 1023.84 1024.44 1024.95 1025.32 1025.54 1025.63 1025.63 1025.61 1025.61 1025.68 1025.83 1026.06 1026.35 1026.66 1026.95 1027.20 1027.37 1027.48 1027.52 1027.51 1027.47 1027.41
1033.12 1033.52 1033.86 1034.11 1034.25 1034.23 1034.02 1033.59 1032.90 1031.96 1030.77 1029.40 1027.91 1026.40 1024.97 1023.73 1022.76 1022.11 1021.79 1021.79 1022.03 1022.45 1022.95 1023.44 1023.85 1024.16 1024.35 1024.44 1024.47 1024.49 1024.54 1024.65 1024.83 1025.08 1025.37 1025.68 1025.98 1026.25 1026.46 1026.61 1026.72 1026.78 1026.81 1026.82
1033.54 1033.90 1034.11 1034.15 1034.00 1033.63 1033.05 1032.25 1031.24 1030.04 1028.72 1027.31 1025.89 1024.54 1023.33 1022.33 1021.60 1021.14 1020.96 1021.01 1021.25 1021.61 1022.01 1022.40 1022.73 1022.98 1023.15 1023.26 1023.34 1023.41 1023.52 1023.68 1023.89 1024.15 1024.43 1024.73 1025.01 1025.26 1025.48 1025.66 1025.81 1025.93 1026.02 1026.09
1033.82 1034.10 1034.16 1033.95 1033.48 1032.75 1031.79 1030.62 1029.29 1027.87 1026.43 1025.01 1023.70 1022.54 1021.57 1020.84 1020.36 1020.10 1020.06 1020.18 1020.42 1020.73 1021.05 1021.35 1021.62 1021.83 1022.00 1022.14 1022.28 1022.43 1022.61 1022.82 1023.06 1023.32 1023.59 1023.85 1024.09 1024.31 1024.50 1024.67 1024.84 1024.99 1025.12 1025.24
1033.88 1034.06 1033.94 1033.49 1032.72 1031.64 1030.33 1028.84 1027.25 1025.65 1024.13 1022.74 1021.55 1020.58 1019.86 1019.39 1019.13 1019.07 1019.15 1019.33 1019.57 1019.83 1020.09 1020.32 1020.53 1020.73 1020.92 1021.12 1021.33 1021.57 1021.82 1022.09 1022.36 1022.62 1022.86 1023.06 1023.24 1023.40 1023.55 1023.69 1023.84 1023.99 1024.15 1024.30
1033.61 1033.68 1033.39 1032.72 1031.69 1030.35 1028.76 1027.03 1025.26 1023.56 1022.01 1020.68 1019.62 1018.84 1018.33 1018.08 1018.02 1018.11 1018.28 1018.50 1018.73 1018.94 1019.14 1019.32 1019.51 1019.70 1019.93 1020.19 1020.48 1020.81 1021.14 1021.46 1021.76 1022.01 1022.21 1022.36 1022.47 1022.56 1022.64 1022.73 1022.84 1022.98 1023.13 1023.28
1032.93 1032.88 1032.44 1031.60 1030.39 1028.87 1027.12 1025.26 1023.41 1021.68 1020.16 1018.93 1018.00 1017.39 1017.07 1016.98 1017.06 1017.25 1017.47 1017.70 1017.91 1018.08 1018.23 1018.37 1018.54 1018.75 1019.01 1019.34 1019.71 1020.12 1020.52 1020.88 1021.20 1021.44 1021.60 1021.69 1021.73 1021.75 1021.76 1021.80 1021.87 1021.97 1022.11 1022.24
1031.77 1031.59 1031.03 1030.08 1028.78 1027.18 1025.38 1023.51 1021.68 1020.01 1018.60 1017.48 1016.70 1016.23 1016.04 1016.07 1016.24 1016.47 1016.72 1016.93 1017.10 1017.23 1017.34 1017.46 1017.62 1017.85 1018.16 1018.54 1018.98 1019.44 1019.89 1020.29 1020.62 1020.84 1020.97 1021.01 1021.00 1020.96 1020.92 1020.90 1020.93 1021.00 1021.11 1021.22
1030.10 1029.79 1029.14 1028.13 1026.81 1025.23 1023.50 1021.72 1020.01 1018.48 1017.21 1016.25 1015.61 1015.27 1015.18 1015.28 1015.49 1015.73 1015.97 1016.15 1016.29 1016.38 1016.46 1016.57 1016.73 1016.99 1017.33 1017.76 1018.24 1018.75 1019.23 1019.65 1019.97 1020.18 1020.28 1020.29 1020.24 1020.16 1020.08 1020.04 1020.04 1020.09 1020.17 1020.25
1027.94 1027.50 1026.77 1025.76 1024.48 1023.01 1021.43 1019.83 1018.32 1016.98 1015.90 1015.11 1014.60 1014.37 1014.36 1014.50 1014.72 1014.96 1015.17 1015.33 1015.44 1015.51 1015.59 1015.70 1015.88 1016.16 1016.54 1016.99 1017.51 1018.03 1018.52 1018.93 1019.24 1019.44 1019.53 1019.52 1019.45 1019.36 1019.28 1019.22 1019.21 1019.24 1019.30 1019.36
1025.37 1024.80 1024.02 1023.03 1021.85 1020.54 1019.16 1017.79 1016.53 1015.43 1014.56 1013.94 1013.58 1013.44 1013.48 1013.64 1013.87 1014.10 1014.29 1014.44 1014.54 1014.63 1014.72 1014.86 1015.07 1015.38 1015.78 1016.26 1016.77 1017.30 1017.78 1018.18 1018.47 1018.66 1018.74 1018.73 1018.67 1018.59 1018.51 1018.47 1018.46 1018.48 1018.52 1018.55
1022.55 1021.87 1021.05 1020.10 1019.05 1017.92 1016.77 1015.66 1014.66 1013.81 1013.15 1012.70 1012.46 1012.41 1012.50 1012.68 1012.91 1013.14 1013.34 1013.50 1013.63 1013.74 1013.88 1014.07 1014.32 1014.67 1015.09 1015.57 1016.09 1016.60 1017.06 1017.44 1017.72 1017.90 1017.98 1017.98 1017.94 1017.88 1017.83 1017.80 1017.79 1017.81 1017.82 1017.81
1019.69 1018.91 1018.07 1017.18 1016.26 1015.32 1014.41 1013.55 1012.79 1012.17 1011.71 1011.42 1011.29 1011.31 1011.44 1011.65 1011.89 1012.13 1012.35 1012.55 1012.73 1012.91 1013.11 1013.36 1013.67 1014.05 1014.50 1014.99 1015.49 1015.98 1016.41 1016.77 1017.04 1017.22 1017.31 1017.33 1017.32 1017.28 1017.25 1017.23 1017.22 1017.22 1017.19 1017.13
1017.04 1016.18 1015.34 1014.51 1013.72 1012.96 1012.25 1011.61 1011.07 1010.64 1010.35 1010.19 1010.15 1010.23 1010.39 1010.62 1010.87 1011.14 1011.40 1011.66 1011.91 1012.17 1012.45 1012.77 1013.14 1013.56 1014.03 1014.52 1015.01 1015.48 1015.89 1016.24 1016.50 1016.68 1016.79 1016.83 1016.84 1016.83 1016.80 1016.77 1016.74 1016.69 1016.61 1016.48
Thickness
5486 5477 5471 5473 5476 5477 5476 5477 5478 5486 5493 5490 5489 5494 5501 5503 5504 5506 5509 5512 5518 5525 5532 5539 5546 5551 5557 5563 5569 5574 5578 5583 5588 5592 5596 5601 5604 5608 5612 5617 5620 5623 5625 5626
5469 5464 5470 5474 5472 5468 5467 5465 5467 5476 5483 5481 5478 5483 5490 5491 5492 5495 5498 5501 5506 5512 5518 5526 5533 5540 5546 5552 5558 5564 5568 5572 5577 5583 5587 5591 5594 5598 5602 5607 5611 5614 5617 5619
5459 5460 5467 5465 5461 5458 5460 5456 5459 5463 5469 5472 5469 5471 5478 5482 5484 5485 5487 5490 5494 5500 5506 5513 5520 5527 5533 5539 5546 5553 5558 5563 5567 5572 5576 5579 5583 5587 5591 5596 5602 5606 5609 5612
5450 5454 5458 5456 5452 5450 5452 5456 5457 5458 5449 5446 5453 5449 5463 5469 5471 5473 5474 5477 5481 5487 5494 5500 5507 5514 5522 5529 5536 5542 5548 5553 5557 5562 5566 5570 5574 5577 5582 5588 5592 5597 5601 5605
5441 5444 5445 5445 5446 5446 5444 5451 5450 5449 5440 5432 5435 5431 5445 5453 5455 5460 5462 5466 5470 5475 5482 5489 5496 5503 5511 5518 5524 5530 5535 5541 5546 5552 5557 5562 5564 5568 5573 5578 5583 5587 5592 5597
5436 5437 5436 5437 5440 5441 5439 5440 5440 5433 5424 5419 5426 5423 5432 5434 5444 5449 5453 5456 5459 5465 5471 5479 5485 5492 5499 5505 5512 5518 5524 5530 5536 5542 5548 5553 5556 5559 5563 5568 5573 5578 5583 5588
5423 5428 5428 5429 5429 5429 5424 5417 5413 5411 5405 5414 5423 5420 5423 5429 5436 5439 5442 5446 5449 5454 5460 5467 5473 5480 5487 5493 5500 5507 5513 5519 5526 5532 5538 5543 5547 5551 5556 5561 5564 5568 5573 5578
5402 5409 5415 5416 5413 5409 5408 5403 5398 5397 5399 5404 5410 5411 5417 5422 5426 5429 5432 5436 5439 5443 5449 5456 5463 5468 5475 5482 5489 5496 5503 5510 5516 5522 5528 5534 5538 5542 5546 5551 5555 5559 5565 5569
5386 5397 5408 5409 5408 5405 5399 5394 5393 5384 5382 5382 5393 5399 5409 5417 5416 5417 5419 5423 5426 5431 5438 5445 5452 5458 5465 5472 5479 5486 5492 5499 5506 5512 5518 5523 5528 5532 5537 5542 5546 5550 5555 5560
5378 5378 5392 5397 5400 5396 5392 5387 5379 5374 5375 5380 5385 5386 5391 5396 5399 5403 5405 5408 5412 5418 5424 5432 5441 5448 5455 5462 5469 5476 5483 5489 5495 5501 5507 5513 5518 5523 5528 5533 5537 5541 5546 5550
5372 5367 5376 5380 5377 5377 5376 5373 5369 5366 5366 5368 5373 5383 5389 5385 5388 5390 5393 5397 5401 5406 5412 5419 5427 5437 5445 5451 5459 5466 5472 5479 5485 5491 5497 5502 5508 5513 5518 5523 5527 5531 5536 5541
5362 5355 5355 5365 5372 5373 5367 5361 5357 5359 5356 5353 5356 5371 5383 5379 5380 5382 5385 5389 5392 5397 5402 5409 5416 5426 5434 5442 5449 5457 5463 5469 5475 5482 5487 5492 5498 5502 5507 5512 5517 5521 5525 5530
5355 5344 5348 5363 5362 5358 5355 5353 5351 5348 5348 5346 5349 5366 5377 5371 5373 5375 5376 5379 5383 5387 5393 5399 5407 5415 5423 5431 5439 5445 5452 5459 5465 5471 5476 5481 5486 5491 5496 5501 5506 5510 5514 5519
5356 5335 5338 5349 5350 5344 5343 5349 5347 5343 5341 5341 5347 5359 5367 5365 5364 5365 5368 5371 5374 5379 5384 5390 5398 5405 5413 5420 5427 5435 5442 5448 5455 5461 5466 5471 5475 5480 5485 5490 5494 5498 5503 5507
5343 5329 5327 5333 5339 5336 5338 5340 5340 5336 5337 5340 5349 5349 5359 5357 5356 5358 5360 5364 5368 5372 5377 5382 5388 5396 5403 5410 5417 5424 5432 5439 5445 5451 5456 5461 5465 5469 5474 5479 5483 5487 5491 5496
5327 5321 5321 5325 5335 5334 5337 5341 5338 5336 5335 5334 5342 5348 5353 5350 5350 5352 5354 5358 5361 5365 5370 5375 5381 5387 5394 5401 5407 5414 5422 5428 5435 5440 5446 5451 5455 5459 5463 5467 5471 5475 5479 5484
5315 5312 5313 5317 5321 5328 5330 5333 5334 5331 5330 5331 5334 5342 5343 5342 5344 5345 5347 5350 5352 5356 5361 5367 5372 5379 5386 5392 5398 5405 5412 5418 5424 5430 5436 5440 5444 5448 5452 5456 5459 5463 5467 5472
5310 5306 5301 5305 5308 5315 5337 5330 5329 5327 5326 5325 5330 5334 5334 5335 5338 5339 5341 5342 5344 5349 5353 5359 5366 5372 5379 5384 5389 5396 5403 5409 5415 5420 5424 5429 5433 5436 5440 5443 5447 5451 5455 5460
5310 5305 5296 5295 5291 5306 5326 5325 5317 5317 5321 5322 5322 5326 5326 5326 5331 5334 5337 5337 5340 5344 5348 5353 5358 5364 5371 5376 5381 5388 5394 5400 5405 5410 5415 5419 5423 5426 5429 5432 5436 5440 5443 5448
5301 5296 5290 5283 5290 5303 5325 5319 5313 5314 5316 5320 5316 5316 5316 5319 5322 5329 5331 5332 5334 5337 5342 5346 5350 5356 5362 5367 5373 5379 5384 5389 5395 5401 5406 5410 5413 5416 5419 5422 5425 5428 5432 5436
5290 5283 5279 5278 5279 5296 5308 5306 5309 5308 5317 5313 5309 5308 5308 5309 5313 5318 5321 5324 5326 5329 5334 5338 5342 5347 5352 5358 5364 5369 5374 5379 5385 5391 5396 5400 5404 5407 5410 5412 5415 5419 5422 5425
5285 5279 5275 5274 5273 5294 5303 5300 5300 5304 5305 5303 5302 5301 5301 5303 5306 5309 5312 5315 5318 5321 5325 5329 5333 5338 5343 5349 5355 5360 5364 5370 5375 5381 5387 5391 5395 5397 5400 5402 5404 5407 5410 5412
5282 5284 5282 5283 5296 5299 5293 5295 5296 5294 5293 5294 5293 5294 5294 5296 5298 5301 5303 5306 5309 5312 5317 5321 5324 5329 5335 5340 5344 5349 5355 5360 5366 5371 5376 5380 5384 5387 5389 5392 5393 5395 5397 5400
5279 5275 5275 5276 5288 5288 5287 5288 5289 5287 5287 5287 5286 5286 5287 5287 5289 5292 5294 5297 5300 5303 5307 5311 5315 5320 5325 5330 5335 5339 5344 5350 5355 5360 5365 5369 5372 5375 5378 5381 5383 5385 5387 5389
5281 5270 5268 5272 5280 5280 5286 5285 5286 5284 5282 5281 5280 5279 5279 5280 5281 5283 5285 5288 5290 5295 5298 5302 5305 5309 5314 5320 5324 5329 5334 5339 5344 5349 5353 5357 5361 5364 5367 5369 5372 5375 5377 5379
5276 5272 5270 5280 5283 5278 5283 5284 5282 5279 5277 5276 5274 5273 5273 5273 5274 5275 5277 5280 5283 5286 5289 5293 5296 5300 5305 5310 5314 5319 5323 5328 5333 5338 5342 5345 5349 5352 5355 5358 5360 5363 5365 5368